Hanford, WA

1:53 PM PDT on March 28, 2017 (GMT -0700)
Hanford

Weather History for KHMS - October, 2011

Change the Weather History Date:

Tuesday, October 4, 2011

  Actual Average Record
Temperature  
Mean Temperature 57 °F -  
Max Temperature 64 °F 70 °F 81 °F (2003)
Min Temperature 51 °F 44 °F 33 °F (1999)
Degree Days  
Heating Degree Days 8    
Growing Degree Days 7 (Base 50)    
Moisture  
Dew Point 48 °F    
Average Humidity 75    
Maximum Humidity 99    
Minimum Humidity 44    
Precipitation  
Precipitation 0.16 in - - ()
Sea Level Pressure  
Sea Level Pressure 29.68 in    
Wind  
Wind Speed 7 mph (South)    
Max Wind Speed 12 mph    
Max Gust Speed -    
Visibility 15 miles    
Events Rain    
Averages and records for this station are not official NWS values.
T = Trace of Precipitation, MM = Missing Value Source: NWS Daily Summary

Daily Weather History Graph

Daily Weather History Graph

Search for Another Location

Airport or City:

Trip Planner

Search our weather history database for the weather conditions in past years. The results will help you decide how hot, cold, wet, or windy it might be!

Date:

Astronomy

Oct. 04, 2011 Rise Set
Actual Time 7:00 AM PDT 6:32 PM PDT
Civil Twilight 6:30 AM PDT 7:02 PM PDT
Nautical Twilight 5:55 AM PDT 7:37 PM PDT
Astronomical Twilight 5:20 AM PDT 8:13 PM PDT
Moon 3:00 PM PDT (10/4) No Moon Set
Length of Visible Light 12h 32m
Length of Day
11h 31m
First Quarter, 57% of the Moon is Illuminated
Oct 4
First Quarter
Oct 11
Full
Oct 19
Last Quarter
Oct 26
New
Nov 2
First Quarter

Hourly Weather History & Observations

Time (PDT) Temp. Dew Point Humidity Pressure Visibility Wind Dir Wind Speed Gust Speed Precip Events Conditions
12:50 AM 58.3 °F 46.6 °F 65% 29.76 in 15.0 mi West 11.5 mph - N/A Rain Light Rain
1:50 AM 54.3 °F 50.9 °F 88% 29.77 in 15.0 mi West 9.2 mph - N/A Rain Light Rain
2:50 AM 52.9 °F 52.7 °F 99% 29.75 in 15.0 mi WNW 4.6 mph - N/A Rain Light Rain
3:50 AM 53.2 °F 50.9 °F 92% 29.75 in 12.0 mi WSW 10.4 mph - N/A Rain Light Rain
4:50 AM 52.7 °F 51.6 °F 96% 29.74 in 15.0 mi WSW 4.6 mph - N/A Rain Light Rain
5:50 AM 52.3 °F 52.0 °F 99% 29.74 in 15.0 mi South 4.6 mph - N/A Rain Light Rain
6:50 AM 51.8 °F 51.4 °F 99% 29.74 in 15.0 mi ESE 4.6 mph - N/A   Overcast
7:50 AM 52.0 °F 51.1 °F 97% 29.74 in 15.0 mi East 2.3 mph - N/A   Overcast
8:50 AM 53.4 °F 50.9 °F 91% 29.75 in 15.0 mi SE 4.6 mph - N/A   Mostly Cloudy
9:50 AM 54.0 °F 50.9 °F 89% 29.75 in 15.0 mi East 4.6 mph - N/A   Mostly Cloudy
10:50 AM 57.6 °F 48.6 °F 72% 29.72 in 15.0 mi East 8.1 mph - N/A   Overcast
11:50 AM 60.1 °F 46.6 °F 61% 29.71 in 15.0 mi NW 4.6 mph - N/A   Overcast
12:50 PM 60.6 °F 43.0 °F 52% 29.69 in 15.0 mi SSW 4.6 mph - N/A   Overcast
1:50 PM 61.7 °F 41.5 °F 48% 29.67 in 15.0 mi South 5.8 mph - N/A   Overcast
2:50 PM 62.4 °F 41.5 °F 46% 29.65 in 15.0 mi SSW 5.8 mph - N/A   Overcast
3:50 PM 63.5 °F 41.2 °F 44% 29.62 in 15.0 mi SE 6.9 mph - N/A   Mostly Cloudy
4:50 PM 62.1 °F 42.3 °F 48% 29.60 in 15.0 mi SE 4.6 mph - N/A   Overcast
5:50 PM 61.3 °F 45.0 °F 55% 29.60 in 15.0 mi East 11.5 mph - N/A   Mostly Cloudy
6:50 PM 56.1 °F 43.5 °F 63% 29.57 in 15.0 mi East 8.1 mph - N/A   Overcast
10:50 PM 53.8 °F 48.6 °F 82% 29.52 in 15.0 mi WNW 8.1 mph - N/A   Overcast
11:50 PM 53.6 °F 49.3 °F 85% 29.48 in 15.0 mi West 5.8 mph - N/A Rain Light Rain